TimeEDT,TemperatureF,Dew PointF,Humidity,Sea Level PressureIn,VisibilityMPH,Wind Direction,Wind SpeedMPH,Gust SpeedMPH,PrecipitationIn,Events,Conditions,WindDirDegrees,DateUTC
12:15 AM,42.8,24.8,49,30.08,10.0,South,10.4,-,N/A,,Clear,170,2013-03-31 04:15:00
12:35 AM,42.8,24.8,49,30.07,10.0,South,8.1,-,N/A,,Clear,170,2013-03-31 04:35:00
12:55 AM,42.8,24.8,49,30.06,10.0,South,8.1,-,N/A,,Clear,170,2013-03-31 04:55:00
1:15 AM,42.8,24.8,49,30.06,10.0,South,9.2,-,N/A,,Clear,170,2013-03-31 05:15:00
1:35 AM,42.8,24.8,49,30.05,10.0,South,10.4,-,N/A,,Clear,170,2013-03-31 05:35:00
1:55 AM,42.8,24.8,49,30.04,10.0,SSE,9.2,-,N/A,,Clear,160,2013-03-31 05:55:00
2:15 AM,42.8,24.8,49,30.03,10.0,South,10.4,16.1,N/A,,Clear,170,2013-03-31 06:15:00
2:35 AM,42.8,24.8,49,30.02,10.0,South,10.4,16.1,N/A,,Clear,170,2013-03-31 06:35:00
2:55 AM,42.8,24.8,49,30.01,10.0,South,11.5,-,N/A,,Clear,170,2013-03-31 06:55:00
3:15 AM,42.8,24.8,49,30.00,10.0,South,8.1,-,N/A,,Scattered Clouds,170,2013-03-31 07:15:00
3:35 AM,42.8,24.8,49,30.00,10.0,South,8.1,-,N/A,,Overcast,170,2013-03-31 07:35:00
3:55 AM,42.8,26.6,53,29.99,10.0,SSE,8.1,-,N/A,,Overcast,160,2013-03-31 07:55:00
4:15 AM,42.8,24.8,49,29.98,10.0,SSE,6.9,-,N/A,,Overcast,150,2013-03-31 08:15:00
4:35 AM,42.8,26.6,53,29.97,10.0,South,8.1,-,N/A,,Overcast,170,2013-03-31 08:35:00
4:55 AM,42.8,28.4,57,29.97,10.0,South,9.2,-,N/A,,Overcast,170,2013-03-31 08:55:00
5:15 AM,42.8,26.6,53,29.96,10.0,SSE,8.1,-,N/A,,Overcast,160,2013-03-31 09:15:00
5:35 AM,42.8,28.4,57,29.95,10.0,SSE,9.2,16.1,N/A,,Overcast,160,2013-03-31 09:35:00
5:55 AM,41.0,28.4,61,29.95,10.0,SSE,9.2,-,N/A,,Overcast,160,2013-03-31 09:55:00
6:15 AM,39.2,30.2,70,29.95,10.0,South,11.5,-,N/A,,Drizzle,180,2013-03-31 10:15:00
6:35 AM,37.4,33.8,87,29.95,10.0,South,11.5,18.4,0.01,Rain,Light Rain,190,2013-03-31 10:35:00
6:55 AM,39.2,35.6,87,29.95,10.0,South,10.4,-,0.01,Rain,Light Rain,190,2013-03-31 10:55:00
7:15 AM,39.2,35.6,87,29.94,10.0,South,8.1,-,0.03,Rain,Light Rain,180,2013-03-31 11:15:00
7:35 AM,39.2,37.4,93,29.93,10.0,South,11.5,-,0.07,Rain,Light Rain,190,2013-03-31 11:35:00
7:55 AM,39.2,39.2,100,29.93,0.8,SSW,8.1,17.3,0.01,Rain,Light Rain,210,2013-03-31 11:55:00
8:15 AM,39.2,39.2,100,29.91,0.2,SSE,8.1,17.3,0.02,Rain,Rain,150,2013-03-31 12:15:00
8:35 AM,39.2,39.2,100,29.92,0.2,South,9.2,-,0.03,Rain,Light Rain,180,2013-03-31 12:35:00
8:55 AM,39.2,39.2,100,29.90,0.2,South,11.5,-,N/A,Rain,Light Rain,170,2013-03-31 12:55:00
9:15 AM,39.2,39.2,100,29.90,0.2,South,11.5,16.1,N/A,Rain,Light Rain,180,2013-03-31 13:15:00
9:35 AM,39.2,39.2,100,29.88,0.2,South,11.5,-,N/A,,Drizzle,180,2013-03-31 13:35:00
9:55 AM,39.2,39.2,100,29.88,0.2,South,11.5,17.3,N/A,Rain,Heavy Rain,180,2013-03-31 13:55:00
10:15 AM,39.2,39.2,100,29.87,0.2,South,9.2,18.4,0.01,,Heavy Drizzle,180,2013-03-31 14:15:00
10:35 AM,39.2,39.2,100,29.87,0.2,South,9.2,-,0.01,,Heavy Drizzle,180,2013-03-31 14:35:00
10:55 AM,41.0,41.0,100,29.86,0.2,South,10.4,-,N/A,Rain,Rain,180,2013-03-31 14:55:00
11:15 AM,41.0,41.0,100,29.86,0.2,South,11.5,-,N/A,Rain,Light Rain,190,2013-03-31 15:15:00
11:35 AM,41.0,41.0,100,29.86,0.2,South,10.4,-,N/A,Rain,Light Rain,170,2013-03-31 15:35:00
11:55 AM,41.0,41.0,100,29.86,0.2,South,10.4,-,N/A,Rain,Heavy Rain,180,2013-03-31 15:55:00
12:15 PM,41.0,41.0,100,29.84,0.2,SSW,4.6,-,N/A,,Heavy Drizzle,200,2013-03-31 16:15:00
12:35 PM,42.8,42.8,100,29.84,0.2,SW,6.9,-,N/A,,Drizzle,220,2013-03-31 16:35:00
12:55 PM,42.8,42.8,100,29.84,2.5,SW,10.4,16.1,N/A,Rain,Light Rain,230,2013-03-31 16:55:00
1:15 PM,44.6,44.6,100,29.83,1.2,SW,12.7,-,N/A,,Overcast,230,2013-03-31 17:15:00
1:35 PM,44.6,44.6,100,29.82,0.2,WSW,16.1,23.0,N/A,Fog,Fog,240,2013-03-31 17:35:00
1:55 PM,44.6,44.6,100,29.80,0.2,WSW,15.0,20.7,N/A,Rain,Light Rain,250,2013-03-31 17:55:00
2:15 PM,44.6,44.6,100,29.81,0.2,West,16.1,23.0,N/A,,Overcast,260,2013-03-31 18:15:00
2:35 PM,44.6,44.6,100,29.80,0.2,WSW,18.4,23.0,N/A,,Unknown,250,2013-03-31 18:35:00
2:55 PM,44.6,44.6,100,29.80,0.2,West,17.3,25.3,N/A,,Unknown,260,2013-03-31 18:55:00
3:15 PM,44.6,44.6,100,29.81,0.2,WSW,17.3,27.6,N/A,Rain,Light Rain,250,2013-03-31 19:15:00
3:35 PM,44.6,44.6,100,29.81,0.5,West,18.4,26.5,N/A,Rain,Rain,260,2013-03-31 19:35:00
3:55 PM,44.6,44.6,100,29.81,5.0,WSW,19.6,27.6,N/A,Rain,Light Rain,250,2013-03-31 19:55:00
4:15 PM,44.6,44.6,100,29.81,7.0,West,17.3,26.5,N/A,,Overcast,260,2013-03-31 20:15:00
4:35 PM,44.6,44.6,100,29.80,10.0,West,18.4,24.2,N/A,,Overcast,260,2013-03-31 20:35:00
4:55 PM,44.6,44.6,100,29.81,10.0,West,20.7,26.5,N/A,,Overcast,260,2013-03-31 20:55:00
5:15 PM,44.6,44.6,100,29.82,10.0,West,13.8,20.7,N/A,,Overcast,260,2013-03-31 21:15:00
5:35 PM,44.6,44.6,100,29.81,5.0,West,20.7,26.5,N/A,Rain,Light Rain,260,2013-03-31 21:35:00
5:55 PM,44.6,44.6,100,29.80,10.0,West,18.4,29.9,N/A,,Overcast,270,2013-03-31 21:55:00
6:15 PM,44.6,44.6,100,29.81,10.0,West,23.0,28.8,N/A,,Overcast,260,2013-03-31 22:15:00
6:35 PM,44.6,44.6,100,29.81,10.0,West,16.1,-,N/A,,Overcast,270,2013-03-31 22:35:00
6:55 PM,44.6,44.6,100,29.81,10.0,West,16.1,23.0,N/A,,Overcast,260,2013-03-31 22:55:00
7:15 PM,44.6,44.6,100,29.80,10.0,West,16.1,25.3,N/A,,Overcast,280,2013-03-31 23:15:00
7:35 PM,44.6,44.6,100,29.80,10.0,West,12.7,-,N/A,,Overcast,280,2013-03-31 23:35:00
7:55 PM,44.6,44.6,100,29.81,10.0,West,12.7,21.9,N/A,,Overcast,270,2013-03-31 23:55:00
8:15 PM,44.6,42.8,93,29.82,10.0,West,12.7,18.4,N/A,,Overcast,280,2013-04-01 00:15:00
8:35 PM,42.8,42.8,100,29.82,10.0,West,16.1,29.9,N/A,,Overcast,280,2013-04-01 00:35:00
8:55 PM,42.8,42.8,100,29.82,10.0,West,20.7,26.5,N/A,,Overcast,270,2013-04-01 00:55:00
9:15 PM,42.8,41.0,93,29.82,10.0,West,19.6,28.8,N/A,,Mostly Cloudy,270,2013-04-01 01:15:00
9:35 PM,42.8,41.0,93,29.82,10.0,West,20.7,24.2,N/A,,Mostly Cloudy,270,2013-04-01 01:35:00
9:55 PM,42.8,41.0,93,29.82,10.0,West,21.9,28.8,N/A,,Overcast,270,2013-04-01 01:55:00
10:15 PM,42.8,39.2,87,29.82,10.0,West,16.1,25.3,N/A,,Scattered Clouds,280,2013-04-01 02:15:00
10:35 PM,42.8,39.2,87,29.83,10.0,West,17.3,23.0,N/A,,Mostly Cloudy,280,2013-04-01 02:35:00
10:55 PM,42.8,39.2,87,29.83,10.0,West,16.1,23.0,N/A,,Overcast,280,2013-04-01 02:55:00
11:15 PM,42.8,39.2,87,29.83,10.0,West,15.0,24.2,N/A,,Overcast,270,2013-04-01 03:15:00
11:35 PM,42.8,37.4,81,29.82,10.0,WNW,15.0,21.9,N/A,,Overcast,290,2013-04-01 03:35:00